Regional Weather Roundup
Issued by NWS

Home | Current Version | Previous Version | Text Only | Print | Product List | Glossary Off
Versions: 1 2 3 4 5 6 7 8 9 10 11 12 13 14 15 16 17 18 19 20 21 22 23 24 25 26 27 28 29 30 31 32 33 34 35 36 37 38 39 40 41 42 43 44 45 46 47 48 49 50

000
ASUS43 KLOT 292321
RWRIL

ILLINOIS REGIONAL WEATHER ROUNDUP
NATIONAL WEATHER SERVICE CHICAGO/ROMEOVILLE IL
600 PM CDT MON JUN 29 2015

NOTE: "FAIR" INDICATES FEW OR NO CLOUDS BELOW 12,000 FEET WITH NO
SIGNIFICANT WEATHER AND/OR OBSTRUCTIONS TO VISIBILITY.

* THESE STATIONS ARE NOT UNDER NWS QUALITY CONTROL. THEY ALSO MAY NOT
  REPORT WEATHER SUCH AS PRECIPITATION OR FOG.

ILZ001-002-007-009-015-016-024-300000-
NORTHWEST ILLINOIS

CITY           SKY/WX    TMP DP  RH WIND       PRES   REMARKS
MOLINE         MOSUNNY   80  64  58 W8        29.79F HX  82
STERLING*      MOSUNNY   79  66  65 W8        29.79S HX  81
SAVANNA*       CLOUDY    79  62  56 CALM      29.78F HX  80
$$

ILZ003-004-008-010-011-017-018-300000-
NORTH CENTRAL ILLINOIS

CITY           SKY/WX    TMP DP  RH WIND       PRES   REMARKS
ROCKFORD       PTSUNNY   71  62  73 CALM      29.80S THUNDER
FREEPORT*      MOSUNNY   73  62  68 W8        29.80F
ROCHELLE*      MOSUNNY   70  67  92 CALM      29.81S
DE KALB*       PTSUNNY   69  61  75 CALM      29.81F
PERU*          CLOUDY    73  64  73 CALM      29.80S
$$

ILZ005-006-012>014-019>023-300000-
NORTHEAST ILLINOIS

CITY           SKY/WX    TMP DP  RH WIND       PRES   REMARKS
CHICAGO-OHARE  PTSUNNY   70  65  84 S5        29.78F
CHICAGO-MIDWAY LGT RAIN  72  66  81 S5        29.79S
AURORA         PTSUNNY   72  62  71 E5        29.80F
LANSING*       CLOUDY    71  62  73 SW6       29.80S
JOLIET*        CLOUDY    73  66  79 SW6       29.80F
WAUKEGAN       PTSUNNY   67  62  84 SE6       29.79F
DUPAGE AIRPORT PTSUNNY   68  64  87 CALM      29.79F
KANKAKEE*      DRIZZLE   68  65  92 CALM      29.82S
WHEELING       CLOUDY    71  63  75 S3        29.80F
MORRIS*        CLOUDY    68  65  89 CALM      29.77F
ROMEOVILLE*    CLOUDY    69  62  78 CALM      29.80F
NORTHERLY ISL    N/A     65  62  90 NE2         N/A
$$

LMZ740>746-300000-
SOUTHERN LAKE MICHIGAN

STATION/POSITION SKY/WX   TEMP    WIND        PRES    VSBY  WAVE
                          AIR SEA DIR/SP/G                  HT/PER
                          (F)     (DEG/KT/KT) (MB)    (MI)  (FT/S)
HARRISON CRIB              64      90/  6/  7   N/A
BURNHAM HARBOR             65      70/  2/  5   N/A
CALUMET HARBOR             66      40/  2/  4   N/A
BURNS HARBOR               67      10/  6/  8 1009.8S
MICHIGAN CITY              67     350/  6/  7   N/A
MICHIGAN CITY 6N           67 67   20/  4/  6   N/A           0
ST. JOSEPH                 68 65                N/A           0
$$

ILZ025>027-034>036-040-047-049-050-058-095>099-300000-
WEST-CENTRAL ILLINOIS

CITY           SKY/WX    TMP DP  RH WIND       PRES   REMARKS
QUINCY         MOSUNNY   74  64  71 SE5       29.85F
GALESBURG*     MOSUNNY   79  67  65 W7        29.82F HX  81
MACOMB*        MOSUNNY   77  67  69 W6        29.85S
JACKSONVILLE*  PTSUNNY   79  70  74 SW3       29.84S HX  81
PITTSFIELD*    TSTM      73  68  83 SW5       29.87R
$$

ILZ028>032-037-038-041>044-048-051>054-059>061-300000-
CENTRAL ILLINOIS

CITY           SKY/WX    TMP DP  RH WIND       PRES   REMARKS
PONTIAC        CLOUDY    77  66  69 W13       29.81R
BLOOMINGTON    MOSUNNY   78  65  64 NW16      29.83R HX  80
DECATUR        MOSUNNY   77  63  61 W9        29.83S
PEORIA         SUNNY     80  64  58 NW8       29.82R HX  82
LACON*         MOSUNNY   77  62  60 NW7       29.80S
LINCOLN*       SUNNY     79  63  57 NW6       29.83R HX  80
SPRINGFIELD    MOSUNNY   77  65  66 W7        29.84S
TAYLORVILLE    SUNNY     73  64  73 W6        29.84R
$$

ILZ033-039-045-046-055>057-062-063-300000-
EAST-CENTRAL ILLINOIS

CITY           SKY/WX    TMP DP  RH WIND       PRES   REMARKS
CHAMPAIGN      MOSUNNY   77  66  68 W9        29.81S
DANVILLE*      RAIN      73  67  80 N5        29.77S
RANTOUL*       PTSUNNY   79  65  62 W12       29.80S HX  81
MATTOON        MOSUNNY   76  64  66 W13       29.82R
PARIS*         MOSUNNY   77  65  67 W10       29.81S
$$

ILZ079-100>102-300000-
SOUTHWEST ILLINOIS

CITY           SKY/WX    TMP DP  RH WIND       PRES   REMARKS
ALTON          PTSUNNY   79  72  78 W6        29.86S HX  82
BELLEVILLE     SUNNY     82  67  62 VRB6      29.84S HX  84
CAHOKIA*       PTSUNNY   84  62  47 NW5       29.84F HX  85
SPARTA*        SUNNY     83  65  54 NW3       29.86F HX  84
$$

ILZ064>066-069>071-074>076-080>082-084>086-088>090-092>094-300000-
SOUTH-CENTRAL ILLINOIS

CITY           SKY/WX    TMP DP  RH WIND       PRES   REMARKS
CARBONDALE     MOSUNNY   83  64  52 NW7       29.85S HX  84
CAIRO*         SUNNY     87  65  46 NW9       29.83F HX  89
EFFINGHAM*     MOSUNNY   79  59  51 W13       29.84F HX  80
MARION         MOSUNNY   82  64  54 W12       29.85F HX  84
MT. VERNON     MOSUNNY   81  63  54 NW3       29.86S HX  82
CENTRALIA*     MOSUNNY   79  62  56 W9        29.85F HX  80
SALEM*         SUNNY     81  63  53 W8        29.85F HX  82
METROPOLIS*    SUNNY     85  67  53 NW7       29.85S HX  88
$$

ILZ067-068-072-073-078-083-087-091-300000-
SOUTHEAST ILLINOIS

CITY           SKY/WX    TMP DP  RH WIND       PRES   REMARKS
LAWRENCEVILLE  MOSUNNY   80  65  59 W12G20    29.82S HX  82
FLORA*         SUNNY     79  64  59 W8        29.84F HX  81
FAIRFIELD*     MOSUNNY   79  65  62 W6        29.83F HX  81
HARRISBURG*    SUNNY     82  65  57 NW8       29.85F HX  83
ROBINSON*      PTSUNNY   77  65  66 W10       29.82S
CARMI*         SUNNY     81  58  45 W12       29.84S HX  81
$$

ABBREVIATIONS USED IN REMARKS
   TC - TEMPERATURE IN CELSIUS
  WCI - WIND CHILL INDEX
   HX - HEAT INDEX
  VSB - VISIBILITY
$$



USA.gov is the U.S. government's official web portal to all federal, state and local government web resources and services.